Regional Weather Roundup
Issued by NWS

Home | Current Version | Previous Version | Text Only | Print | Product List | Glossary On
Versions: 1 2 3 4 5 6 7 8 9 10 11 12 13 14 15 16 17 18 19 20 21 22 23 24 25 26 27 28 29 30 31 32 33 34 35 36 37 38 39 40 41 42 43 44 45 46 47 48 49 50
000
ASUS45 KABQ 250610
RWRNM
NEW MEXICO REGIONAL WEATHER ROUNDUP
NATIONAL WEATHER SERVICE ALBUQUERQUE NM
1100 PM MST FRI NOV 24 2017

NOTE: "FAIR" MEANS FEW OR NO CLOUDS BELOW 12,000 FEET AGL WITH NO
       SIGNIFICANT WEATHER OR OBSTRUCTIONS TO VISION.

      THIS PRODUCT IS RELEASED AS TWO VERSIONS.  ONE VERSION NEAR
      THE TOP OF THE HOUR CONTAINING PRELIMINARY DATA FROM ALBUQUERQUE
      AND OTHER STATIONS.  A FINAL VERSION WITH ADDITIONAL DATA IS
      ISSUED ABOUT 10 MINUTES AFTER THE HOUR.

NMZ501-503-504-510>518-250700-
NORTHWEST PLATEAU/NORTHCENTRAL MOUNTAINS

CITY           SKY/WX    TMP DP  RH WIND       PRES   REMARKS
FARMINGTON     FAIR      42  23  46 N3        30.12R
6HR MIN TEMP:  41; 6HR MAX TEMP:  59;

LOS ALAMOS     FAIR      52  15  23 NW5       30.19R
SANTA FE       FAIR      45  20  36 N12       30.14R
6HR MIN TEMP:  43; 6HR MAX TEMP:  62;

TAOS           FAIR      32  16  51 N7        30.20S WCI  26
ANGEL FIRE     FAIR      25  19  78 CALM      30.25R

$$
NMZ402-403-502-505>509-250700-
WESTCENTRAL MOUNTAINS/SOUTHWEST MOUNTAINS

CITY           SKY/WX    TMP DP  RH WIND       PRES   REMARKS
GALLUP         FAIR      30  10  43 NE3       30.19R
6HR MIN TEMP:  30; 6HR MAX TEMP:  65;

GRANTS         FAIR      37  11  33 NW7       30.20R WCI  32
SILVER CITY    FAIR      51  22  31 N9        30.12S

$$
NMZ407-409-411-412-250700-
SOUTHERN DESERTS

CITY           SKY/WX    TMP DP  RH WIND       PRES   REMARKS
DEMING         FAIR      53  23  31 W5        30.07R
6HR MIN TEMP:  53; 6HR MAX TEMP:  74;

LAS CRUCES     FAIR      55  25  31 NW9       30.05S
HOLLOMAN AFB   FAIR      46  24  42 CALM      30.06R
ALAMOGORDO     FAIR      46  23  39 CALM      30.05R
T OR C         FAIR     N/A N/A N/A NE5       30.07R

$$
NMZ519>523-250700-
CENTRAL VALLEYS/CENTRAL HIGHLANDS

CITY           SKY/WX    TMP DP  RH WIND       PRES   REMARKS
ALBUQUERQUE    FAIR      48  24  39 E7        30.11R
6HR MIN TEMP:  47; 6HR MAX TEMP:  63;

MORIARTY ARPT  FAIR      37  19  47 CALM      30.16S
6HR MIN TEMP:  37; 6HR MAX TEMP:  62;

CLINES CORNERS FAIR      48  17  29 NW7       30.19R
6HR MIN TEMP:  42; 6HR MAX TEMP:  59;

BELEN          FAIR      40  23  50 CALM      30.12R
6HR MIN TEMP:  39; 6HR MAX TEMP:  62;

SOCORRO        FAIR      50  22  32 CALM      30.09R
6HR MIN TEMP:  47; 6HR MAX TEMP:  63;


$$
NMZ524>526-539-540-250700-
SOUTHCENTRAL MOUNTAINS

CITY           SKY/WX    TMP DP  RH WIND       PRES   REMARKS
RUIDOSO        FAIR      57  14  18 NW10G20   30.18R

$$
NMZ527>531-250700-
NORTHEAST HIGHLANDS/NORTHEAST PLAINS

CITY           SKY/WX    TMP DP  RH WIND       PRES   REMARKS
LAS VEGAS      FAIR      45  20  36 NE13      30.18R
6HR MIN TEMP:  45; 6HR MAX TEMP:  61;

RATON          FAIR      44  29  55 N8        30.16R
6HR MIN TEMP:  42; 6HR MAX TEMP:  64;

CLAYTON        FAIR      45  33  63 N14       30.10R
6HR MIN TEMP:  44; 6HR MAX TEMP:  61;


$$
NMZ532>537-250700-
EASTCENTRAL PLAINS

CITY           SKY/WX    TMP DP  RH WIND       PRES   REMARKS
SANTA ROSA     FAIR      57  24  28 N20       30.05R
TUCUMCARI      FAIR      58  33  39 NE14G24   30.01R
6HR MIN TEMP:  58; 6HR MAX TEMP:  69;

CANNON AFB     FAIR      56  26  31 N18       29.96R
6HR MIN TEMP:  56; 6HR MAX TEMP:  73;

CLOVIS AIRPORT FAIR      55  27  34 N24       29.95R

$$
NMZ028-029-538-250700-
SOUTHEAST PLAINS

CITY           SKY/WX    TMP DP  RH WIND       PRES   REMARKS
ROSWELL        FAIR      63  24  22 NW13      29.93S
6HR MIN TEMP:  59; 6HR MAX TEMP:  72;

ARTESIA        FAIR      63  23  22 W15       29.94R
CARLSBAD       FAIR      65  27  23 N6        29.90R
6HR MIN TEMP:  63; 6HR MAX TEMP:  73;

HOBBS          FAIR      52  27  37 NW5       29.90S


$$




USA.gov is the U.S. government's official web portal to all federal, state and local government web resources and services.